RH
8 8 8 8 8 8 8 8 8 8 9 10 12 13 13 15 14 13 14 15 17 16 14 13 11 11 11 11 11 10 10 10 10 11 13 12 11 11 11 10 10 10 10 9 11 14 14 14 15 14 13 13 13 12 13 13 13 13 12 12 13 14 16 14 15 17 14 12 17 17 15 14 13 21 25 22 17 19 33 37 37 44 47 50 58 68 65 59
8 8 8 8 8 8 8 8 8 8 8 8 10 11 12 13 14 13 13 13 15 16 16 14 13 12 11 11 11 12 11 11 11 11 12 13 12 12 11 11 10 10 10 10 11 15 14 14 14 14 13 14 15 13 13 13 13 13 12 13 12 13 15 15 16 16 16 16 18 18 15 14 12 22 30 24 21 23 36 44 41 48 58 59 62 67 63 58
9 8 7 7 7 8 8 8 8 8 8 8 8 10 10 12 14 14 13 13 13 14 16 15 15 13 13 12 11 12 11 12 16 16 16 16 15 13 12 12 11 11 11 10 12 16 14 13 14 15 15 16 16 15 13 14 14 14 13 14 12 11 13 16 19 18 18 18 17 17 13 13 11 17 25 24 26 27 35 46 45 49 60 65 63 61 58 53
9 9 8 8 8 8 9 9 9 8 8 8 8 8 9 10 12 14 13 12 12 13 14 15 15 15 15 13 13 13 13 17 21 21 20 17 15 14 13 13 12 11 11 11 13 15 15 17 19 19 19 18 16 15 13 12 15 16 13 13 13 12 13 17 21 20 20 18 16 16 12 12 12 14 20 24 31 36 43 51 50 52 58 62 60 55 53 46
9 9 9 8 8 8 8 9 9 9 8 8 8 7 7 8 10 13 13 13 12 12 12 14 15 15 15 15 16 15 17 25 27 26 25 20 18 16 14 13 12 12 11 12 15 15 16 21 23 22 22 19 16 14 13 12 14 17 14 12 12 13 16 19 22 20 17 16 14 15 13 13 14 13 14 21 32 42 51 57 55 58 60 60 59 54 49 44
9 9 9 9 9 8 8 8 9 10 9 8 8 7 7 7 8 10 12 13 12 12 12 12 14 15 15 16 16 18 23 26 25 28 28 23 22 18 16 15 13 13 12 14 16 16 17 22 23 22 21 20 17 15 15 14 14 16 15 13 12 12 16 18 22 20 15 14 13 14 13 12 13 13 13 17 26 36 46 53 54 60 62 60 58 53 50 48
9 9 9 9 9 9 9 8 8 9 9 9 8 8 7 7 7 8 11 12 12 12 12 12 13 15 16 16 17 22 28 24 21 27 27 24 24 20 18 16 15 14 13 15 17 16 18 22 22 20 21 19 16 15 15 17 16 17 16 14 14 14 14 15 17 17 14 13 12 13 12 12 12 13 13 14 24 34 40 48 54 61 63 60 57 51 49 50
10 10 10 10 9 9 9 9 8 8 9 10 9 9 9 8 7 7 8 11 12 13 12 12 12 14 16 16 18 24 29 26 24 29 26 24 25 23 20 17 15 15 15 17 16 16 19 21 21 19 19 18 15 15 15 16 16 17 16 15 16 16 15 15 16 15 14 14 11 11 11 13 11 12 14 16 28 38 40 48 53 57 60 56 56 51 47 45
11 11 11 11 10 10 10 10 10 9 9 10 11 11 10 10 8 7 8 9 11 12 13 12 12 13 15 17 20 26 30 28 27 29 27 24 25 26 23 18 16 16 17 19 16 16 19 19 19 18 18 18 16 15 15 16 15 16 16 15 16 16 16 16 15 16 15 13 11 10 10 11 11 12 13 14 25 36 39 46 50 54 53 50 53 53 47 44
11 11 11 11 11 11 11 11 11 10 11 10 11 12 12 11 10 9 8 8 9 11 13 13 12 13 15 18 23 27 29 29 28 30 29 25 25 26 25 22 19 17 19 20 16 16 18 17 17 17 17 17 18 17 16 15 14 15 16 16 16 16 16 15 15 16 15 13 11 11 11 11 11 12 13 13 18 29 37 42 44 49 49 48 52 51 48 46
11 11 11 11 11 11 11 11 11 11 11 11 11 11 12 13 13 11 9 9 9 9 12 12 12 12 13 19 23 23 24 28 29 30 30 28 28 26 25 25 23 21 22 21 17 17 18 17 16 15 16 15 16 16 16 15 14 15 15 15 16 16 16 15 14 15 15 13 11 11 11 12 13 12 13 13 14 22 32 34 37 43 45 48 52 50 50 50
11 11 11 11 11 11 11 11 11 11 11 11 11 10 11 11 13 14 12 12 10 9 10 10 12 12 13 20 21 19 20 24 25 27 29 29 29 27 24 24 24 23 24 23 20 19 18 17 16 16 17 16 16 16 16 16 15 15 15 16 17 17 16 14 13 14 15 13 11 12 11 12 13 13 13 12 13 18 23 24 29 34 38 44 48 50 53 52
10 10 10 11 11 11 11 11 11 11 10 10 10 10 10 10 11 13 14 14 13 12 11 10 11 11 16 22 16 14 19 22 22 23 26 28 27 26 24 24 23 22 24 26 24 21 19 18 17 17 17 18 19 18 15 16 16 16 16 16 17 17 15 14 14 14 15 14 13 12 13 13 12 12 12 12 17 20 19 21 24 26 35 45 47 50 51 50
11 10 10 9 10 10 10 10 10 10 10 10 10 10 10 9 9 10 13 14 14 14 14 14 14 14 21 22 12 13 19 20 21 21 23 25 24 23 23 23 23 22 22 26 27 24 21 19 18 18 17 18 19 18 17 17 16 15 17 16 16 17 14 14 14 14 14 14 13 13 13 13 12 12 12 13 18 20 19 22 23 24 34 44 48 50 50 48
12 11 11 11 10 9 9 9 9 10 10 10 9 9 10 10 9 9 10 12 13 14 16 16 17 19 24 21 14 16 19 20 20 20 22 25 24 25 24 22 22 23 23 25 27 27 25 21 20 19 18 18 18 18 20 21 18 15 16 16 16 15 14 13 13 13 15 14 13 13 13 13 11 12 13 13 15 19 20 22 23 25 30 39 48 53 55 52
11 11 12 12 11 11 10 10 9 9 9 9 9 9 9 9 9 10 9 10 12 14 16 18 22 24 25 23 19 19 21 21 20 19 22 25 27 30 30 26 23 23 24 24 24 27 26 23 21 19 18 18 17 17 21 24 21 17 16 17 16 15 13 13 12 13 14 13 13 13 12 12 12 13 15 14 15 19 21 22 22 23 30 38 47 55 57 53
12 11 11 11 11 11 11 11 11 10 10 9 9 9 9 9 10 10 10 10 11 13 16 19 24 26 25 23 19 20 24 26 25 22 22 25 28 32 34 31 27 25 25 24 23 25 26 24 22 20 18 18 18 20 22 24 23 19 17 17 16 14 14 12 11 14 17 15 14 14 12 13 12 12 16 16 17 21 22 22 22 21 28 39 46 51 54 55
12 12 12 12 11 11 11 11 11 11 12 11 10 9 9 9 8 9 12 14 16 18 21 25 27 26 27 27 22 23 27 29 30 27 25 27 28 32 35 32 29 27 26 25 24 24 24 23 21 21 19 18 20 23 23 22 21 19 17 17 16 13 13 12 10 14 18 18 17 16 14 13 12 12 16 17 17 22 23 21 23 21 24 36 45 49 54 63
12 12 12 12 12 12 12 12 11 11 11 12 12 10 10 11 14 18 21 23 26 27 27 33 34 27 28 31 27 25 25 27 31 29 29 32 30 32 34 30 29 28 26 26 25 23 23 23 22 21 20 19 18 21 23 19 16 18 20 20 19 14 12 11 12 14 16 17 17 18 17 13 12 13 17 18 16 22 24 22 23 22 22 29 44 55 61 67
13 13 12 12 12 12 12 12 11 11 11 12 12 12 15 19 25 31 32 30 30 27 24 26 27 22 22 25 25 25 25 27 32 29 30 34 32 32 32 28 27 27 26 25 24 23 21 22 22 20 19 19 18 20 22 19 15 19 25 28 25 19 14 12 14 15 16 18 18 19 19 14 12 14 19 21 21 23 25 24 22 22 23 25 41 57 60 63
13 12 12 12 12 12 12 12 12 12 12 12 12 14 19 21 25 30 27 23 22 21 20 20 20 19 19 20 25 32 31 28 31 30 31 34 31 29 29 26 26 26 26 25 24 23 21 21 20 19 18 19 21 22 21 19 18 18 24 30 29 23 19 16 16 15 16 19 20 21 20 16 14 15 18 21 24 25 23 23 22 22 23 26 40 53 55 60
14 13 12 12 12 12 12 13 12 12 12 12 12 13 15 18 22 22 18 16 16 17 18 19 20 19 18 19 23 31 31 28 31 30 31 33 29 27 26 24 25 25 24 23 25 24 21 20 17 17 20 21 23 24 22 20 21 21 23 29 28 25 23 20 18 17 18 20 21 22 21 17 15 16 19 18 20 25 21 20 21 22 23 27 37 47 52 59
14 13 13 12 12 11 12 12 12 13 12 11 12 12 14 17 19 18 17 17 17 17 15 16 21 22 22 22 23 25 26 28 31 30 31 32 28 25 25 24 23 23 23 22 26 27 22 20 16 17 23 25 23 24 25 22 23 23 23 26 26 25 25 21 19 20 20 22 23 22 23 21 17 15 17 18 18 20 21 18 19 22 23 25 35 45 52 53
12 11 12 11 11 11 11 11 14 16 14 13 12 12 14 16 15 16 17 17 17 18 17 14 19 25 26 26 25 24 25 27 29 32 33 31 28 25 25 25 22 23 24 22 26 27 23 22 22 20 21 24 23 24 27 26 25 24 24 25 23 23 25 21 19 21 21 25 26 24 26 26 24 20 16 19 19 17 23 22 19 23 22 25 37 47 51 47
13 12 12 11 11 11 10 13 22 24 19 18 15 14 17 15 15 18 17 19 19 19 21 20 19 23 26 27 26 25 26 26 26 33 37 32 29 27 25 26 24 24 23 21 23 26 26 27 26 24 23 27 29 27 29 30 28 24 22 23 20 21 25 21 20 24 26 28 28 27 29 27 26 24 22 24 21 18 24 24 21 23 22 27 38 47 49 44
17 15 15 14 13 14 12 17 27 25 20 24 21 20 21 16 15 18 21 29 27 20 25 27 24 26 29 28 28 27 28 27 24 33 39 32 29 29 27 28 27 25 23 20 22 24 26 27 28 30 32 33 33 30 29 29 27 23 19 19 17 18 23 23 23 25 29 32 32 33 32 28 25 23 24 26 24 21 21 22 23 23 23 29 40 48 49 43
19 18 17 16 15 16 14 18 24 20 21 31 30 25 23 17 17 20 28 34 27 21 26 27 27 32 37 35 32 30 29 29 26 30 36 33 30 29 29 30 28 26 24 23 26 26 24 25 26 30 33 31 28 25 25 25 23 20 19 18 15 14 19 25 26 25 28 34 38 38 33 28 27 24 24 25 28 28 23 21 22 24 29 33 39 44 43 47
19 18 16 16 16 15 15 15 16 15 20 28 28 26 24 22 21 25 37 40 30 27 33 34 34 36 40 38 35 32 30 33 31 28 33 33 31 29 28 30 28 26 24 25 31 30 25 23 25 28 29 28 25 22 21 22 22 19 19 22 20 17 18 24 28 27 30 36 38 38 34 30 26 24 27 28 30 32 28 23 21 24 31 35 40 41 44 60
17 16 16 16 14 16 18 16 16 15 16 19 24 27 26 25 25 29 44 47 33 29 34 39 42 40 38 37 35 32 29 35 35 31 34 34 31 29 28 28 28 26 24 24 30 33 30 25 25 27 26 24 22 20 18 19 21 17 18 26 28 23 20 22 29 32 33 38 39 39 39 36 30 25 26 29 30 29 27 25 23 24 32 36 40 45 53 68
16 15 15 14 14 21 22 18 20 19 17 19 22 24 25 27 31 40 48 42 28 25 29 35 40 41 38 36 36 32 30 36 35 34 39 39 32 28 28 28 28 28 27 25 26 29 33 30 25 25 24 21 20 20 21 22 21 19 22 28 30 30 27 22 25 31 35 38 37 37 38 40 40 34 28 28 29 28 28 28 23 24 36 41 41 48 60 63
15 15 15 13 13 16 17 17 23 22 20 21 19 19 21 25 35 46 46 36 26 25 27 30 33 35 36 37 37 33 31 35 37 38 42 42 36 29 28 29 28 29 29 26 23 23 30 31 27 25 23 20 19 21 28 30 26 23 23 28 30 33 33 24 21 25 31 35 33 34 35 38 42 39 34 33 33 33 33 34 27 24 38 45 43 53 63 57
14 13 11 12 11 10 10 12 16 20 20 17 14 16 20 26 36 41 37 33 29 29 28 30 34 36 38 40 40 37 35 36 38 41 42 42 40 32 28 28 27 28 28 26 24 22 25 25 25 27 24 19 19 23 30 31 27 22 19 24 32 36 34 27 24 24 25 28 31 33 34 37 41 38 36 38 39 39 37 39 34 27 37 46 48 56 60 57
12 11 9 9 9 8 8 7 11 17 17 12 12 16 21 29 33 31 29 30 31 32 32 35 41 45 44 42 41 40 38 38 38 41 42 41 42 37 31 28 26 27 28 29 28 24 23 21 21 25 24 20 20 23 29 28 23 21 19 21 29 37 37 33 30 29 27 27 29 33 36 40 43 39 39 42 43 43 39 42 42 35 39 47 51 58 58 62
9 8 8 8 9 9 9 10 15 18 16 13 13 17 26 32 28 23 24 26 27 29 32 35 40 44 45 43 45 45 43 42 41 42 43 40 41 40 35 29 26 26 27 30 31 29 27 24 22 22 22 21 20 20 28 31 23 17 17 21 30 37 39 37 37 36 35 32 30 34 39 45 48 45 42 42 42 42 41 43 45 42 42 45 52 62 61 65
9 10 12 12 14 15 12 14 19 18 17 16 15 20 29 30 23 19 20 22 25 27 30 34 35 37 41 43 46 48 46 45 45 46 45 40 38 38 34 30 28 27 26 29 32 32 31 29 26 24 21 20 20 18 23 31 30 21 16 21 32 39 38 40 42 40 39 37 35 37 43 47 50 48 45 42 41 42 41 42 46 48 45 42 49 60 60 63
14 19 18 17 20 20 17 18 19 18 18 16 17 23 25 22 19 19 19 20 22 27 32 36 36 34 37 39 41 44 47 48 49 50 48 43 38 35 33 31 29 28 27 27 31 32 33 34 34 30 24 21 20 19 19 26 34 32 23 20 30 37 39 42 44 41 40 41 40 44 49 49 48 49 47 45 44 43 40 41 47 51 49 45 47 55 60 64
16 21 22 27 29 24 20 21 19 20 19 16 22 24 19 16 16 17 20 20 23 32 36 37 39 35 33 34 36 40 46 49 49 51 51 49 44 37 33 32 29 29 29 27 32 35 37 39 40 36 32 26 21 20 19 20 30 39 33 27 29 33 39 42 43 42 40 40 41 45 51 48 45 46 46 45 47 45 43 47 50 50 51 51 50 54 60 64
14 21 30 39 38 28 23 20 20 20 17 17 24 24 17 15 15 17 20 19 24 35 36 36 41 38 32 33 33 36 44 48 48 51 52 52 51 44 40 38 34 31 30 29 34 39 41 43 44 41 39 34 26 22 23 21 25 37 39 34 32 34 39 41 42 44 43 41 39 38 45 51 50 48 47 48 51 47 45 52 53 49 52 56 54 54 56 59
18 31 44 47 43 35 23 18 20 19 18 23 25 20 14 13 13 16 20 19 22 32 35 35 41 40 35 34 33 35 41 47 52 56 57 57 59 55 48 45 43 37 33 31 32 37 43 44 44 42 39 38 33 26 26 25 26 32 36 37 37 37 41 41 41 42 41 45 42 34 44 59 58 54 53 54 54 50 49 56 57 54 56 57 55 54 58 63
27 40 52 52 47 37 20 16 21 18 21 27 23 17 16 15 14 13 17 18 21 32 36 33 36 40 39 36 35 36 41 48 53 58 61 63 63 60 54 50 51 47 39 35 31 33 41 43 45 47 41 39 38 32 29 27 28 32 34 37 41 40 40 41 43 40 38 44 42 35 50 67 62 57 57 56 56 56 59 65 66 65 67 67 61 57 61 67
32 42 53 52 45 34 20 20 27 27 32 35 28 23 20 19 18 15 16 18 19 29 35 31 32 38 40 39 37 38 43 49 53 56 61 66 64 61 59 57 56 52 46 42 37 34 37 40 46 53 47 42 41 39 35 30 29 32 33 34 38 40 41 43 45 43 38 41 42 41 59 70 63 60 60 57 57 59 63 67 68 68 72 73 71 68 68 70
39 47 50 46 39 30 22 28 35 39 47 49 44 40 34 29 26 20 20 23 23 28 32 29 30 34 36 38 39 41 44 47 52 56 61 67 68 64 63 63 60 55 51 51 48 43 41 39 43 49 48 46 45 42 40 35 30 31 33 33 33 36 39 41 45 46 42 41 42 46 61 68 63 63 63 60 60 60 62 63 62 64 68 68 69 71 70 70
45 47 45 44 39 30 31 41 47 47 51 51 48 49 45 40 36 29 27 27 26 30 32 30 30 31 31 34 37 42 46 46 50 57 59 62 66 65 63 63 61 57 57 59 57 52 50 47 47 49 47 46 47 45 41 39 36 34 34 36 36 37 36 35 39 43 43 43 42 46 62 69 64 65 67 66 63 62 66 67 63 63 63 62 66 67 65 65
40 41 42 43 38 32 40 52 54 55 56 52 51 53 53 49 46 42 38 33 27 28 32 32 31 32 32 32 35 39 44 46 47 52 57 58 61 62 61 59 57 55 56 60 59 56 56 56 56 60 59 53 51 50 46 43 40 37 37 38 39 40 39 37 40 42 42 42 40 47 64 70 65 65 70 70 67 65 69 73 71 67 63 62 66 68 65 66
36 39 40 40 35 33 43 52 52 52 51 49 49 52 56 57 55 51 46 41 35 31 32 34 35 38 37 33 33 35 41 46 46 48 56 60 60 61 59 57 57 55 53 54 57 57 58 59 58 61 65 63 61 59 57 53 47 43 42 40 39 41 42 44 46 46 45 44 43 53 68 71 66 67 70 70 69 70 71 72 72 70 68 66 68 69 67 67
34 34 32 31 31 35 46 53 51 49 51 53 50 43 45 52 56 57 52 46 42 37 37 38 37 39 39 33 32 33 36 43 45 47 55 60 61 63 62 60 60 59 56 54 57 59 60 62 63 62 61 61 65 63 57 55 52 49 47 45 44 43 43 46 48 49 51 53 57 63 67 69 71 70 69 70 72 73 72 70 71 70 69 69 68 67 66 66
29 31 27 26 33 43 52 57 53 51 58 63 56 49 51 52 52 59 60 51 44 39 38 42 40 39 40 38 37 36 37 41 42 44 50 53 58 63 63 61 61 62 61 57 57 60 62 63 65 66 61 59 63 63 58 55 54 51 50 49 50 48 46 49 50 49 51 55 66 73 67 68 75 73 70 71 71 71 71 70 71 71 69 68 66 64 62 61
26 31 30 29 38 46 51 55 54 54 60 65 64 63 67 64 57 58 60 55 50 44 40 44 44 41 42 42 40 37 38 42 40 41 48 51 56 61 61 60 62 63 62 60 58 58 61 61 61 63 63 59 60 61 60 58 57 54 51 50 54 53 52 55 56 55 53 53 65 76 72 71 76 74 72 72 71 72 73 72 72 71 68 66 64 62 58 53
28 33 35 35 38 40 47 54 55 60 64 67 68 65 65 68 65 59 56 56 59 54 50 54 52 45 44 47 47 46 47 50 51 51 52 53 55 58 60 61 63 60 57 58 60 59 60 62 60 60 62 60 59 60 59 59 59 57 54 54 59 59 59 63 65 63 61 61 67 74 74 73 74 72 72 73 70 71 73 74 73 70 68 66 65 62 58 52
23 29 37 42 36 32 46 57 57 65 69 66 64 60 57 60 61 58 55 54 58 56 53 60 62 56 55 55 56 58 58 56 58 56 50 49 53 56 58 58 60 61 58 58 60 59 58 60 60 60 64 63 61 60 59 59 62 63 59 58 60 62 66 70 72 70 70 72 73 71 71 73 72 68 69 68 65 66 71 74 73 70 68 67 65 64 62 59
20 23 31 42 35 27 42 56 57 63 68 64 64 61 56 51 47 50 54 53 54 52 48 53 62 64 65 61 56 57 58 55 54 50 43 44 50 54 53 52 55 59 63 66 68 64 60 62 62 61 63 64 62 61 60 59 61 64 64 61 60 64 71 74 73 72 73 75 75 71 69 70 68 67 68 66 64 66 69 71 72 70 67 66 64 64 63 61
23 24 27 37 35 27 36 46 47 53 61 62 64 63 61 56 45 44 51 51 51 51 46 47 53 60 66 64 56 53 55 54 49 44 39 39 42 45 47 49 49 51 60 70 75 74 70 67 64 62 62 60 59 60 60 59 61 63 65 64 63 65 71 74 73 70 68 71 73 71 69 66 63 64 67 67 66 67 67 68 68 66 64 63 62 62 62 62